Tracking 27112 objects as of 27-Mar-2023
HD Live streaming from Space Station
objects crossing your sky now

SL-12 R/B(2)

Track SL-12 R/B(2) now!


NORAD ID: 14117
Int'l Code: 1982-009F
Perigee: 35,422.1 km
Apogee: 35,771.1 km
Inclination: 9.2 °
Period: 1,426.0 minutes
Semi major axis: 41967 km
RCS: 2.3838 m2 (large)
Launch date: February 5, 1982
Source: Commonwealth of Independent States (former USSR) (CIS)
Launch site: TYURATAM MISSILE AND SPACE COMPLEX (TTMTR)

Note: This is a ROCKET BODY
Your satellite tracking list
Your tracking list is empty




NASA's NSSDC Master Catalog

Two Line Element Set (TLE):
1 14117U 82009F   23085.84951769  .00000085  00000-0  00000-0 0  9993
2 14117   9.1799 305.0055 0041586 167.0667  20.1883  1.00979107111533
Source of the keplerian elements: AFSPC